This is the latest recevied weather packets stored in our database for station/object KM6YFK-13. If no packets are shown the sender has not sent any weather packets the latest 10 day(s).
| Time | Temp. | Humidity | Pressure | Rain* | Wind** | Luminosity | Snow |
|---|---|---|---|---|---|---|---|
| 1777295908 | 23.33° C | 81% | 1017 hPa | 0 mm | - | 139 W/m² | - |
| 1777295608 | 23.33° C | 83% | 1016.8 hPa | 0 mm | - | 153 W/m² | - |
| 1777295308 | 23.33° C | 87% | 1016.9 hPa | 0 mm | - | 149 W/m² | - |
| 1777295007 | 23.33° C | 89% | 1016.9 hPa | 0 mm | - | 192 W/m² | - |
| 1777294708 | 22.78° C | 89% | 1016.8 hPa | 0 mm | - | 121 W/m² | - |
| 1777294409 | 22.78° C | 89% | 1016.8 hPa | 0 mm | - | 166 W/m² | - |
| 1777294108 | 22.78° C | 90% | 1016.8 hPa | 0 mm | - | 111 W/m² | - |
| 1777293808 | 22.78° C | 90% | 1016.7 hPa | 0 mm | - | 123 W/m² | - |
| 1777293508 | 22.78° C | 90% | 1016.6 hPa | 0 mm | - | 82 W/m² | - |
| 1777293208 | 22.78° C | 89% | 1016.5 hPa | 0 mm | - | 51 W/m² | - |
| 1777292908 | 22.78° C | 89% | 1016.5 hPa | 0 mm | - | 75 W/m² | - |
| 1777292609 | 23.33° C | 89% | 1016.5 hPa | 0 mm | - | 123 W/m² | - |
| 1777292307 | 23.33° C | 88% | 1016.4 hPa | 0 mm | - | 104 W/m² | - |
| 1777292009 | 23.89° C | 87% | 1016.2 hPa | 0 mm | - | 89 W/m² | - |
| 1777291709 | 23.33° C | 85% | 1016.2 hPa | 0 mm | - | 80 W/m² | - |
| 1777291410 | 23.33° C | 87% | 1016.1 hPa | 0 mm | - | 151 W/m² | - |
| 1777291108 | 23.33° C | 88% | 1016 hPa | 0 mm | - | 132 W/m² | - |
| 1777290807 | 22.78° C | 89% | 1015.9 hPa | 0 mm | - | 115 W/m² | - |
| 1777290509 | 22.78° C | 93% | 1015.8 hPa | 0 mm | - | 102 W/m² | - |
| 1777290209 | 22.78° C | 93% | 1015.8 hPa | 0 mm | - | 85 W/m² | - |
| 1777289909 | 22.78° C | 94% | 1015.7 hPa | 0 mm | - | 68 W/m² | - |
| 1777289608 | 22.78° C | 95% | 1015.6 hPa | 0 mm | - | 50 W/m² | - |
| 1777289309 | 22.22° C | 95% | 1015.3 hPa | 0 mm | - | 34 W/m² | - |
| 1777289008 | 22.22° C | 96% | 1015.3 hPa | 0 mm | - | 30 W/m² | - |
| 1777288708 | 22.22° C | 96% | 1015.2 hPa | 0 mm | - | 25 W/m² | - |
* Rain latest hour (hover to see other rain measurements)
** Current wind speed in m/s (hover to see current wind gust speed)